Weather Roundup
Issued by NWS Chicago, IL

Home | Current Version | Previous Version | Graphics & Text | Print | Product List | Glossary On
Versions: 1 2 3 4 5 6 7 8 9 10 11 12 13 14 15 16 17 18 19 20 21 22 23 24 25 26 27 28 29 30 31 32 33 34 35 36 37 38 39 40 41 42 43 44 45 46 47 48 49 50
163
NZUS59 KLOT 171309
HRRLOT

CHICAGO AREA WEATHER ROUNDUP
NATIONAL WEATHER SERVICE CHICAGO/ROMEOVILLE IL
800 AM CDT TUE OCT 17 2017

NOTE: "FAIR" INDICATES FEW OR NO CLOUDS BELOW 12,000 FEET WITH NO
SIGNIFICANT WEATHER AND/OR OBSTRUCTIONS TO VISIBILITY.

* THESE STATIONS ARE NOT UNDER NWS QUALITY CONTROL. THEY ALSO MAY NOT
  REPORT WEATHER SUCH AS PRECIPITATION OR FOG.

ILZ005-006-012>014-019>023-171400-
NORTHEAST ILLINOIS

CITY           SKY/WX    TMP DP  RH WIND       PRES   REMARKS
OHARE          PTCLDY    52  39  61 SW13      30.19R
MIDWAY         PTCLDY    50  40  68 SW14G22   30.21S
AURORA         CLEAR     47  41  80 S9        30.21S
LANSING*       CLEAR     47  41  81 SW10      30.24S
JOLIET*        CLEAR     48  43  82 S7        30.23S
WAUKEGAN       CLEAR     52  40  63 SW14      30.14S
DUPAGE AIRPORT CLEAR     47  41  80 S12       30.19S
WHEELING       CLEAR     52  40  63 SW8       30.20R
KANKAKEE*      PTCLDY    46  38  74 SW7       30.28R
MORRIS*        CLEAR     47  41  78 SW6       30.23R
LEWIS AIRPORT* CLEAR     47  42  82 SW7       30.24R
NORTHERLY ISL    N/A     51  38  60 W7          N/A
$$

WIZ051-052-058>065-066-070>072-171400-
SOUTHEAST WISCONSIN

CITY           SKY/WX    TMP DP  RH WIND       PRES   REMARKS
MILWAUKEE      PTCLDY    53  40  61 SW14      30.11R
KENOSHA*       CLEAR     53  40  61 SW15G22   30.13S
RACINE*        CLEAR     53  40  61 SW13G22   30.13R
BURLINGTON     CLEAR     51  42  72 SW13G18   30.14R
WAUKESHA       CLEAR     48  37  66 SW10      30.12R
WEST BEND      CLEAR     52  37  58 SW9G16    30.08S
$$

INZ001>003-010>013-019-020-171400-
NORTHWEST INDIANA

CITY           SKY/WX    TMP DP  RH WIND       PRES   REMARKS
GARY*          PTCLDY    50  37  62 SW9       30.24S
MICHIGAN CITY* NOT AVBL
RENSSELAER*    NOT AVBL
VALPARAISO     CLEAR     47  40  76 SW9       30.26R
$$

LMZ740>746-171400-
SOUTHERN LAKE MICHIGAN

STATION/POSITION TIME  SKY/WX   TEMP WIND        PRES    VSBY
                                AIR  DIR/SP/G
                 (UTC)          (F)  (DEG/KT/KT) (MB)    (MI)
HARRISON CRIB    1240            54  210/ 23/ 25   N/A
BURNHAM HARBOR   1300            51  200/  5/ 10   N/A
CALUMET HARBOR   1242            51  200/ 11/ 17 1022.3F
BURNS HARBOR     1240            49  190/ 15/ 18 1023.7S
MICHIGAN CITY    1240            49  180/ 13/ 16   N/A
$$

ABBREVIATIONS USED IN REMARKS
   TC - TEMPERATURE IN CELSIUS
  WCI - WIND CHILL INDEX
   HX - HEAT INDEX
  VSB - VISIBILITY
$$




USA.gov is the U.S. government's official web portal to all federal, state and local government web resources and services.